Time,TemperatureF,DewpointF,PressureIn,WindDirection,WindDirectionDegrees,WindSpeedMPH,WindSpeedGustMPH,Humidity,HourlyPrecipIn,Conditions,Clouds,dailyrainin,SoftwareType,DateUTC
2013-01-09 00:00:00,42.5,41.2,30.32,West,259,0.0,0.0,95,0.00,,BKN085,0.00,VWS V14.00,2013-01-09 05:00:00,
2013-01-09 00:03:00,42.9,41.6,30.32,West,259,0.0,0.0,95,0.00,,BKN085,0.00,VWS V14.00,2013-01-09 05:03:00,
2013-01-09 00:08:00,43.0,41.6,30.32,West,259,0.0,0.0,95,0.00,,BKN085,0.00,VWS V14.00,2013-01-09 05:08:00,
2013-01-09 00:13:00,43.3,41.8,30.32,West,259,0.0,0.0,94,0.00,,BKN085,0.00,VWS V14.00,2013-01-09 05:13:00,
2013-01-09 00:18:00,43.2,41.5,30.31,West,259,0.0,0.0,94,0.00,,BKN085,0.00,VWS V14.00,2013-01-09 05:18:00,
2013-01-09 00:23:00,44.0,42.3,30.31,West,259,0.0,0.0,94,0.00,,BKN085,0.00,VWS V14.00,2013-01-09 05:23:00,
2013-01-09 00:28:00,43.2,41.5,30.31,West,259,0.0,0.0,94,0.00,,BKN085,0.00,VWS V14.00,2013-01-09 05:28:00,
2013-01-09 00:33:00,43.6,41.8,30.31,West,259,0.0,0.0,93,0.00,,BKN085,0.00,VWS V14.00,2013-01-09 05:33:00,
2013-01-09 00:38:00,42.8,41.2,30.31,West,276,0.0,2.7,94,0.00,,BKN085,0.00,VWS V14.00,2013-01-09 05:38:00,
2013-01-09 00:43:00,41.9,40.8,30.32,West,276,0.0,2.7,96,0.00,,BKN085,0.00,VWS V14.00,2013-01-09 05:43:00,
2013-01-09 00:48:00,42.1,41.2,30.32,West,276,0.0,0.0,97,0.00,,BKN080,0.00,VWS V14.00,2013-01-09 05:48:00,
2013-01-09 00:53:00,41.0,40.4,30.32,North,359,0.0,3.2,98,0.00,,BKN080,0.00,VWS V14.00,2013-01-09 05:53:00,
2013-01-09 00:58:00,41.1,40.5,30.31,North,359,0.0,3.2,98,0.00,,BKN080,0.00,VWS V14.00,2013-01-09 05:58:00,
2013-01-09 01:03:00,41.1,40.5,30.31,North,359,0.0,0.0,98,0.00,,BKN031,0.00,VWS V14.00,2013-01-09 06:03:00,
2013-01-09 01:08:00,41.1,40.5,30.31,North,359,0.0,0.0,98,0.00,,BKN031,0.00,VWS V14.00,2013-01-09 06:08:00,
2013-01-09 01:13:00,42.3,41.6,30.31,North,359,0.0,0.0,97,0.00,,BKN031,0.00,VWS V14.00,2013-01-09 06:13:00,
2013-01-09 01:18:00,41.4,40.6,30.31,North,359,0.0,0.0,97,0.00,,BKN031,0.00,VWS V14.00,2013-01-09 06:18:00,
2013-01-09 01:23:00,42.2,41.4,30.30,North,359,0.0,0.0,97,0.00,,BKN031,0.00,VWS V14.00,2013-01-09 06:23:00,
2013-01-09 01:28:00,41.0,40.2,30.30,North,359,0.0,0.0,97,0.00,,BKN031,0.00,VWS V14.00,2013-01-09 06:28:00,
2013-01-09 01:33:00,40.5,39.6,30.31,North,359,0.0,0.0,96,0.00,,BKN031,0.00,VWS V14.00,2013-01-09 06:33:00,
2013-01-09 01:38:00,43.2,42.2,30.31,North,359,0.0,0.0,96,0.00,,BKN031,0.00,VWS V14.00,2013-01-09 06:38:00,
2013-01-09 01:43:00,43.6,42.6,30.30,North,359,0.0,0.0,96,0.00,,BKN031,0.00,VWS V14.00,2013-01-09 06:43:00,
2013-01-09 01:48:00,43.4,42.3,30.31,North,359,0.0,0.0,96,0.00,,OVC034,0.00,VWS V14.00,2013-01-09 06:48:00,
2013-01-09 01:53:00,43.8,42.8,30.31,North,359,0.0,0.0,96,0.00,,OVC034,0.00,VWS V14.00,2013-01-09 06:53:00,
2013-01-09 01:58:00,44.0,43.1,30.31,North,359,0.0,0.0,97,0.00,,OVC034,0.00,VWS V14.00,2013-01-09 06:58:00,
2013-01-09 02:03:00,43.7,43.0,30.32,North,359,0.0,0.0,97,0.00,,OVC035,0.00,VWS V14.00,2013-01-09 07:03:00,
2013-01-09 02:08:00,43.6,43.0,30.32,North,359,0.0,0.0,98,0.00,,OVC035,0.00,VWS V14.00,2013-01-09 07:08:00,
2013-01-09 02:13:00,41.6,41.1,30.32,North,359,0.0,0.0,98,0.00,,OVC035,0.00,VWS V14.00,2013-01-09 07:13:00,
2013-01-09 02:18:00,40.3,39.7,30.33,North,359,0.0,0.0,98,0.00,,OVC035,0.00,VWS V14.00,2013-01-09 07:18:00,
2013-01-09 02:23:00,40.4,39.8,30.33,North,359,0.0,0.0,98,0.00,,OVC035,0.00,VWS V14.00,2013-01-09 07:23:00,
2013-01-09 02:28:00,42.9,42.1,30.33,North,359,0.0,0.0,97,0.00,,OVC035,0.00,VWS V14.00,2013-01-09 07:28:00,
2013-01-09 02:33:00,42.2,41.2,30.33,North,359,0.0,0.0,96,0.00,,OVC035,0.00,VWS V14.00,2013-01-09 07:33:00,
2013-01-09 02:38:00,41.8,40.8,30.33,North,359,0.0,0.0,96,0.00,,OVC035,0.00,VWS V14.00,2013-01-09 07:38:00,
2013-01-09 02:43:00,42.9,41.7,30.33,North,359,0.0,0.0,96,0.00,,OVC035,0.00,VWS V14.00,2013-01-09 07:43:00,
2013-01-09 02:48:00,43.1,41.8,30.33,North,359,0.0,0.0,95,0.00,,OVC042,0.00,VWS V14.00,2013-01-09 07:48:00,
2013-01-09 02:53:00,43.0,41.6,30.33,North,359,0.0,0.0,95,0.00,,OVC042,0.00,VWS V14.00,2013-01-09 07:53:00,
2013-01-09 02:58:00,42.9,41.5,30.33,North,359,0.0,0.0,95,0.00,,OVC042,0.00,VWS V14.00,2013-01-09 07:58:00,
2013-01-09 03:03:00,43.0,41.5,30.33,North,359,0.0,0.0,94,0.00,,OVC042,0.00,VWS V14.00,2013-01-09 08:03:00,
2013-01-09 03:08:00,43.1,41.5,30.33,North,359,0.0,0.0,94,0.00,,OVC042,0.00,VWS V14.00,2013-01-09 08:08:00,
2013-01-09 03:13:00,43.1,41.5,30.33,North,359,0.0,0.0,94,0.00,,OVC042,0.00,VWS V14.00,2013-01-09 08:13:00,
2013-01-09 03:18:00,43.0,41.4,30.32,North,359,0.0,0.0,94,0.00,,OVC042,0.00,VWS V14.00,2013-01-09 08:18:00,
2013-01-09 03:23:00,42.8,41.2,30.32,North,359,0.0,0.0,94,0.00,,OVC042,0.00,VWS V14.00,2013-01-09 08:23:00,
2013-01-09 03:28:00,42.7,41.1,30.32,North,359,0.0,0.0,94,0.00,,OVC042,0.00,VWS V14.00,2013-01-09 08:28:00,
2013-01-09 03:33:00,42.5,41.0,30.32,North,359,0.0,0.0,94,0.00,,OVC042,0.00,VWS V14.00,2013-01-09 08:33:00,
2013-01-09 03:38:00,42.1,40.6,30.32,North,359,0.0,0.0,94,0.00,,OVC042,0.00,VWS V14.00,2013-01-09 08:38:00,
2013-01-09 03:43:00,43.8,42.5,30.32,North,359,0.0,0.0,95,0.00,,OVC042,0.00,VWS V14.00,2013-01-09 08:43:00,
2013-01-09 03:48:00,43.6,42.5,30.32,North,359,0.0,0.0,96,0.00,,OVC042,0.00,VWS V14.00,2013-01-09 08:48:00,
2013-01-09 03:53:00,43.2,42.1,30.32,North,359,0.0,0.0,96,0.00,,OVC042,0.00,VWS V14.00,2013-01-09 08:53:00,
2013-01-09 03:58:00,43.2,42.1,30.32,North,359,0.0,0.0,96,0.00,,OVC042,0.00,VWS V14.00,2013-01-09 08:58:00,
2013-01-09 04:03:00,42.8,41.8,30.31,North,359,0.0,0.0,96,0.00,,OVC042,0.00,VWS V14.00,2013-01-09 09:03:00,
2013-01-09 04:08:00,42.8,41.8,30.31,North,359,0.0,0.0,96,0.00,,OVC042,0.00,VWS V14.00,2013-01-09 09:08:00,
2013-01-09 04:13:00,42.5,41.6,30.32,North,359,0.0,0.0,97,0.00,,OVC042,0.00,VWS V14.00,2013-01-09 09:13:00,
2013-01-09 04:18:00,42.1,41.4,30.32,North,359,0.0,0.0,97,0.00,,OVC042,0.00,VWS V14.00,2013-01-09 09:18:00,
2013-01-09 04:23:00,41.4,40.9,30.31,North,359,0.0,0.0,98,0.00,,OVC042,0.00,VWS V14.00,2013-01-09 09:23:00,
2013-01-09 04:28:00,40.3,39.9,30.31,North,359,0.0,0.0,99,0.00,,OVC042,0.00,VWS V14.00,2013-01-09 09:28:00,
2013-01-09 04:33:00,39.2,39.0,30.31,North,359,0.0,0.0,99,0.00,,OVC042,0.00,VWS V14.00,2013-01-09 09:33:00,
2013-01-09 04:38:00,41.8,41.7,30.31,North,359,0.0,0.0,100,0.00,,OVC042,0.00,VWS V14.00,2013-01-09 09:38:00,
2013-01-09 04:43:00,41.8,41.8,30.31,North,359,0.0,0.0,100,0.00,,OVC042,0.00,VWS V14.00,2013-01-09 09:43:00,
2013-01-09 04:48:00,42.0,41.9,30.31,North,359,0.0,0.0,100,0.00,,FEW044,0.00,VWS V14.00,2013-01-09 09:48:00,
2013-01-09 04:53:00,42.3,42.0,30.31,North,359,0.0,0.0,99,0.00,,FEW044,0.00,VWS V14.00,2013-01-09 09:53:00,
2013-01-09 04:58:00,42.5,42.1,30.31,North,359,0.0,0.0,98,0.00,,FEW044,0.00,VWS V14.00,2013-01-09 09:58:00,
2013-01-09 05:03:00,42.8,42.2,30.31,North,359,0.0,0.0,98,0.00,,FEW044,0.00,VWS V14.00,2013-01-09 10:03:00,
2013-01-09 05:08:00,43.2,42.5,30.31,North,359,0.0,0.0,97,0.00,,FEW044,0.00,VWS V14.00,2013-01-09 10:08:00,
2013-01-09 05:13:00,43.3,42.5,30.31,North,359,0.0,0.0,97,0.00,,FEW044,0.00,VWS V14.00,2013-01-09 10:13:00,
2013-01-09 05:18:00,43.5,42.7,30.31,North,359,0.0,0.0,97,0.00,,FEW044,0.00,VWS V14.00,2013-01-09 10:18:00,
2013-01-09 05:23:00,43.5,42.5,30.31,North,359,0.0,0.0,96,0.00,,FEW044,0.00,VWS V14.00,2013-01-09 10:23:00,
2013-01-09 05:28:00,43.6,42.5,30.31,North,359,0.0,0.0,96,0.00,,FEW044,0.00,VWS V14.00,2013-01-09 10:28:00,
2013-01-09 05:33:00,43.7,42.7,30.31,North,359,0.0,0.0,96,0.00,,FEW044,0.00,VWS V14.00,2013-01-09 10:33:00,
2013-01-09 05:38:00,43.4,42.3,30.31,North,359,0.0,0.0,96,0.00,,FEW044,0.00,VWS V14.00,2013-01-09 10:38:00,
2013-01-09 05:43:00,42.8,41.9,30.31,North,359,0.0,0.0,97,0.00,,FEW044,0.00,VWS V14.00,2013-01-09 10:43:00,
2013-01-09 05:48:00,42.6,41.8,30.31,North,359,0.0,0.0,97,0.00,,FEW044,0.00,VWS V14.00,2013-01-09 10:48:00,
2013-01-09 05:53:00,42.4,41.7,30.31,North,359,0.0,0.0,98,0.00,,FEW044,0.00,VWS V14.00,2013-01-09 10:53:00,
2013-01-09 05:58:00,42.2,41.6,30.31,North,359,0.0,0.0,98,0.00,,FEW044,0.00,VWS V14.00,2013-01-09 10:58:00,
2013-01-09 06:03:00,41.8,41.4,30.31,North,359,0.0,0.0,99,0.00,,FEW044,0.00,VWS V14.00,2013-01-09 11:03:00,
2013-01-09 06:08:00,41.6,41.4,30.31,North,359,0.0,0.0,99,0.00,,FEW044,0.00,VWS V14.00,2013-01-09 11:08:00,
2013-01-09 06:13:00,41.4,41.3,30.31,North,359,0.0,0.0,100,0.00,,FEW044,0.00,VWS V14.00,2013-01-09 11:13:00,
2013-01-09 06:18:00,41.7,41.7,30.31,North,359,0.0,0.0,100,0.00,,FEW044,0.00,VWS V14.00,2013-01-09 11:18:00,
2013-01-09 06:23:00,41.8,41.8,30.31,North,359,0.0,0.0,100,0.00,,FEW044,0.00,VWS V14.00,2013-01-09 11:23:00,
2013-01-09 06:28:00,42.0,42.0,30.31,North,359,0.0,0.0,100,0.00,,FEW044,0.00,VWS V14.00,2013-01-09 11:28:00,
2013-01-09 06:33:00,42.4,42.3,30.31,North,359,0.0,0.0,100,0.00,,FEW044,0.00,VWS V14.00,2013-01-09 11:33:00,
2013-01-09 06:38:00,42.7,42.4,30.31,North,359,0.0,0.0,99,0.00,,FEW044,0.00,VWS V14.00,2013-01-09 11:38:00,
2013-01-09 06:43:00,42.6,42.3,30.32,North,359,0.0,0.0,99,0.00,,FEW044,0.00,VWS V14.00,2013-01-09 11:43:00,
2013-01-09 06:48:00,42.5,42.2,30.32,North,359,0.0,0.0,99,0.00,,FEW024,0.00,VWS V14.00,2013-01-09 11:48:00,
2013-01-09 06:53:00,42.4,42.0,30.32,North,359,0.0,0.0,99,0.00,,FEW024,0.00,VWS V14.00,2013-01-09 11:53:00,
2013-01-09 06:58:00,42.3,42.1,30.33,North,359,0.0,0.0,99,0.00,,FEW024,0.00,VWS V14.00,2013-01-09 11:58:00,
2013-01-09 07:03:00,42.3,42.1,30.33,North,359,0.0,0.0,99,0.00,,FEW024,0.00,VWS V14.00,2013-01-09 12:03:00,
2013-01-09 07:08:00,42.4,42.2,30.33,North,359,0.0,0.0,99,0.00,,FEW024,0.00,VWS V14.00,2013-01-09 12:08:00,
2013-01-09 07:13:00,42.8,42.5,30.33,North,359,0.0,0.0,99,0.00,,FEW024,0.00,VWS V14.00,2013-01-09 12:13:00,
2013-01-09 07:18:00,42.8,42.5,30.33,North,359,0.0,0.0,99,0.00,,FEW024,0.00,VWS V14.00,2013-01-09 12:18:00,
2013-01-09 07:23:00,43.2,42.8,30.33,North,359,0.0,0.0,99,0.00,,FEW024,0.00,VWS V14.00,2013-01-09 12:23:00,
2013-01-09 07:28:00,43.3,42.8,30.33,North,359,0.0,0.0,98,0.00,,FEW024,0.00,VWS V14.00,2013-01-09 12:28:00,
2013-01-09 07:33:00,43.6,43.1,30.33,North,359,0.0,0.0,98,0.00,,FEW024,0.00,VWS V14.00,2013-01-09 12:33:00,
2013-01-09 07:38:00,43.6,43.0,30.33,North,359,0.0,0.0,98,0.00,,FEW024,0.00,VWS V14.00,2013-01-09 12:38:00,
2013-01-09 07:43:00,43.4,42.8,30.34,North,359,0.0,0.0,98,0.00,,FEW024,0.00,VWS V14.00,2013-01-09 12:43:00,
2013-01-09 07:48:00,43.4,42.9,30.34,North,359,0.0,0.0,98,0.00,,FEW024,0.00,VWS V14.00,2013-01-09 12:48:00,
2013-01-09 07:53:00,43.5,43.0,30.34,North,359,0.0,0.0,98,0.00,,FEW024,0.00,VWS V14.00,2013-01-09 12:53:00,
2013-01-09 07:58:00,43.6,43.2,30.34,North,359,0.0,0.0,98,0.00,,FEW024,0.00,VWS V14.00,2013-01-09 12:58:00,
2013-01-09 08:03:00,43.5,43.1,30.34,North,359,0.0,0.0,98,0.00,,FEW024,0.00,VWS V14.00,2013-01-09 13:03:00,
2013-01-09 08:08:00,43.7,43.2,30.34,North,359,0.0,0.0,98,0.00,,FEW024,0.00,VWS V14.00,2013-01-09 13:08:00,
2013-01-09 08:13:00,43.4,43.0,30.34,North,359,0.0,0.0,98,0.00,,FEW024,0.00,VWS V14.00,2013-01-09 13:13:00,
2013-01-09 08:18:00,42.7,42.2,30.35,North,359,0.0,0.0,98,0.00,,FEW024,0.00,VWS V14.00,2013-01-09 13:18:00,
2013-01-09 08:23:00,42.5,41.8,30.35,North,359,0.0,0.0,97,0.00,,FEW024,0.00,VWS V14.00,2013-01-09 13:23:00,
2013-01-09 08:29:00,43.2,42.4,30.35,North,359,0.0,0.0,97,0.00,,FEW024,0.00,VWS V14.00,2013-01-09 13:29:00,
2013-01-09 08:34:00,43.2,42.5,30.35,North,359,0.0,0.0,97,0.00,,FEW024,0.00,VWS V14.00,2013-01-09 13:34:00,
2013-01-09 08:39:00,43.3,42.5,30.36,North,359,0.0,0.0,97,0.00,,FEW024,0.00,VWS V14.00,2013-01-09 13:39:00,
2013-01-09 08:44:00,44.4,43.5,30.36,North,359,0.0,0.0,97,0.00,,FEW024,0.00,VWS V14.00,2013-01-09 13:44:00,
2013-01-09 08:49:00,43.4,42.5,30.36,North,359,0.0,0.0,97,0.00,,,0.00,VWS V14.00,2013-01-09 13:49:00,
2013-01-09 08:54:00,44.3,43.2,30.36,North,359,0.0,0.0,96,0.00,,,0.00,VWS V14.00,2013-01-09 13:54:00,
2013-01-09 08:59:00,44.4,43.4,30.36,North,359,0.0,0.0,96,0.00,,,0.00,VWS V14.00,2013-01-09 13:59:00,
2013-01-09 09:04:00,42.6,41.7,30.36,North,359,0.0,0.0,97,0.00,,,0.00,VWS V14.00,2013-01-09 14:04:00,
2013-01-09 09:09:00,44.5,43.4,30.37,North,359,0.0,0.0,96,0.00,,,0.00,VWS V14.00,2013-01-09 14:09:00,
2013-01-09 09:14:00,43.7,42.5,30.37,North,359,0.0,0.0,96,0.00,,,0.00,VWS V14.00,2013-01-09 14:14:00,
2013-01-09 09:19:00,44.7,43.6,30.37,NNW,346,0.0,4.7,96,0.00,,,0.00,VWS V14.00,2013-01-09 14:19:00,
2013-01-09 09:24:00,45.0,43.9,30.37,NNW,346,0.0,4.7,96,0.00,,,0.00,VWS V14.00,2013-01-09 14:24:00,
2013-01-09 09:29:00,45.1,43.9,30.37,NNW,346,0.0,4.7,96,0.00,,,0.00,VWS V14.00,2013-01-09 14:29:00,
2013-01-09 09:34:00,45.9,44.7,30.37,NNW,346,0.0,0.0,96,0.00,,,0.00,VWS V14.00,2013-01-09 14:34:00,
2013-01-09 09:39:00,43.9,42.6,30.37,NNW,346,0.0,0.0,95,0.00,,,0.00,VWS V14.00,2013-01-09 14:39:00,
2013-01-09 09:44:00,45.1,43.7,30.38,NNW,346,0.0,0.0,95,0.00,,,0.00,VWS V14.00,2013-01-09 14:44:00,
2013-01-09 09:49:00,46.7,45.2,30.38,NNW,346,0.0,0.0,94,0.00,,,0.00,VWS V14.00,2013-01-09 14:49:00,
2013-01-09 09:54:00,45.6,43.9,30.38,WNW,300,0.0,6.1,94,0.00,,,0.00,VWS V14.00,2013-01-09 14:54:00,
2013-01-09 09:59:00,45.6,43.8,30.38,WNW,300,0.0,6.1,93,0.00,,,0.00,VWS V14.00,2013-01-09 14:59:00,
2013-01-09 10:04:00,43.7,41.8,30.38,WNW,300,0.0,0.0,93,0.00,,,0.00,VWS V14.00,2013-01-09 15:04:00,
2013-01-09 10:09:00,44.5,42.4,30.38,WNW,300,0.0,0.0,92,0.00,,,0.00,VWS V14.00,2013-01-09 15:09:00,
2013-01-09 10:14:00,48.0,45.7,30.38,WNW,300,0.0,0.0,92,0.00,,,0.00,VWS V14.00,2013-01-09 15:14:00,
2013-01-09 10:19:00,50.3,47.9,30.38,SW,225,0.0,2.5,91,0.00,,,0.00,VWS V14.00,2013-01-09 15:19:00,
2013-01-09 10:24:00,50.3,47.7,30.38,West,280,0.0,3.5,91,0.00,,,0.00,VWS V14.00,2013-01-09 15:24:00,
2013-01-09 10:29:00,50.5,47.8,30.38,WSW,242,0.0,3.5,90,0.00,,,0.00,VWS V14.00,2013-01-09 15:29:00,
2013-01-09 10:34:00,50.9,47.9,30.38,WSW,242,0.0,0.0,89,0.00,,,0.00,VWS V14.00,2013-01-09 15:34:00,
2013-01-09 10:39:00,51.1,47.9,30.38,WNW,300,0.0,5.5,89,0.00,,,0.00,VWS V14.00,2013-01-09 15:39:00,
2013-01-09 10:44:00,51.7,48.2,30.38,West,278,5.6,5.6,88,0.00,,,0.00,VWS V14.00,2013-01-09 15:44:00,
2013-01-09 10:49:00,51.3,47.5,30.38,NNW,329,6.0,6.0,87,0.00,,BKN034,0.00,VWS V14.00,2013-01-09 15:49:00,
2013-01-09 10:54:00,51.3,47.2,30.37,North,0,0.0,6.2,86,0.00,,BKN034,0.00,VWS V14.00,2013-01-09 15:54:00,
2013-01-09 10:59:00,51.4,47.1,30.37,NW,322,0.0,6.2,85,0.00,,BKN034,0.00,VWS V14.00,2013-01-09 15:59:00,
2013-01-09 11:04:00,52.0,47.3,30.37,NNW,333,2.7,7.2,84,0.00,,BKN034,0.00,VWS V14.00,2013-01-09 16:04:00,
2013-01-09 11:09:00,52.6,47.4,30.36,North,359,0.0,7.2,82,0.00,,BKN034,0.00,VWS V14.00,2013-01-09 16:09:00,
2013-01-09 11:14:00,52.3,46.9,30.36,North,359,0.0,7.2,82,0.00,,BKN034,0.00,VWS V14.00,2013-01-09 16:14:00,
2013-01-09 11:19:00,53.2,47.5,30.36,North,359,0.0,0.0,81,0.00,,BKN034,0.00,VWS V14.00,2013-01-09 16:19:00,
2013-01-09 11:24:00,53.9,48.0,30.36,WSW,246,7.5,7.5,80,0.00,,BKN034,0.00,VWS V14.00,2013-01-09 16:24:00,
2013-01-09 11:29:00,55.0,48.7,30.35,WSW,249,1.7,7.5,79,0.00,,BKN034,0.00,VWS V14.00,2013-01-09 16:29:00,
2013-01-09 11:34:00,55.5,48.9,30.35,SW,217,0.0,4.4,78,0.00,,BKN034,0.00,VWS V14.00,2013-01-09 16:34:00,
2013-01-09 11:39:00,57.3,50.3,30.34,SSW,207,3.1,8.7,77,0.00,,BKN034,0.00,VWS V14.00,2013-01-09 16:39:00,
2013-01-09 11:44:00,57.2,49.7,30.33,SSW,207,0.0,8.7,76,0.00,,BKN034,0.00,VWS V14.00,2013-01-09 16:44:00,
2013-01-09 11:49:00,58.5,50.3,30.33,South,184,4.3,6.9,74,0.00,,BKN034,0.00,VWS V14.00,2013-01-09 16:49:00,
2013-01-09 11:54:00,59.4,51.4,30.33,SSW,193,0.0,8.5,75,0.00,,BKN034,0.00,VWS V14.00,2013-01-09 16:54:00,
2013-01-09 11:59:00,58.6,50.5,30.33,WSW,238,7.1,8.6,74,0.00,,BKN034,0.00,VWS V14.00,2013-01-09 16:59:00,
2013-01-09 12:04:00,59.0,51.0,30.33,South,191,6.4,8.5,75,0.00,,BKN034,0.00,VWS V14.00,2013-01-09 17:04:00,
2013-01-09 12:09:00,59.2,51.3,30.32,WSW,242,7.0,9.1,75,0.00,,BKN034,0.00,VWS V14.00,2013-01-09 17:09:00,
2013-01-09 12:14:00,59.5,51.5,30.32,SSW,201,7.2,9.6,75,0.00,,BKN034,0.00,VWS V14.00,2013-01-09 17:14:00,
2013-01-09 12:19:00,60.3,52.6,30.32,WSW,257,8.2,8.2,76,0.00,,BKN034,0.00,VWS V14.00,2013-01-09 17:19:00,
2013-01-09 12:24:00,59.5,51.8,30.32,West,281,3.0,8.3,76,0.00,,BKN034,0.00,VWS V14.00,2013-01-09 17:24:00,
2013-01-09 12:29:00,56.5,48.7,30.32,SW,235,3.5,9.1,75,0.00,,BKN034,0.00,VWS V14.00,2013-01-09 17:29:00,
2013-01-09 12:34:00,60.8,52.1,30.31,West,269,0.0,7.1,73,0.00,,BKN034,0.00,VWS V14.00,2013-01-09 17:34:00,
2013-01-09 12:39:00,60.7,51.9,30.31,WNW,287,3.5,7.2,73,0.00,,BKN034,0.00,VWS V14.00,2013-01-09 17:39:00,
2013-01-09 12:44:00,60.3,51.1,30.31,WSW,239,9.9,10.3,72,0.00,,BKN034,0.00,VWS V14.00,2013-01-09 17:44:00,
2013-01-09 12:49:00,59.9,51.1,30.31,SSW,197,4.2,8.3,73,0.00,,CLR,0.00,VWS V14.00,2013-01-09 17:49:00,
2013-01-09 12:54:00,60.1,51.4,30.31,WSW,256,4.7,11.7,73,0.00,,CLR,0.00,VWS V14.00,2013-01-09 17:54:00,
2013-01-09 12:59:00,60.2,51.3,30.31,West,266,4.2,11.7,72,0.00,,CLR,0.00,VWS V14.00,2013-01-09 17:59:00,
2013-01-09 13:04:00,60.7,51.6,30.30,West,259,0.0,7.1,72,0.00,,CLR,0.00,VWS V14.00,2013-01-09 18:04:00,
2013-01-09 13:09:00,61.5,51.9,30.30,West,263,4.6,7.1,71,0.00,,CLR,0.00,VWS V14.00,2013-01-09 18:09:00,
2013-01-09 13:14:00,61.0,51.6,30.30,West,271,0.0,11.2,71,0.00,,CLR,0.00,VWS V14.00,2013-01-09 18:14:00,
2013-01-09 13:19:00,61.0,51.9,30.30,SSW,212,8.5,8.5,72,0.00,,CLR,0.00,VWS V14.00,2013-01-09 18:19:00,
2013-01-09 13:24:00,60.5,51.8,30.30,SW,226,7.5,8.5,73,0.00,,CLR,0.00,VWS V14.00,2013-01-09 18:24:00,
2013-01-09 13:29:00,60.1,51.5,30.30,WSW,255,7.5,9.0,73,0.00,,CLR,0.00,VWS V14.00,2013-01-09 18:29:00,
2013-01-09 13:34:00,57.3,49.0,30.30,SSW,194,3.2,6.9,74,0.00,,CLR,0.00,VWS V14.00,2013-01-09 18:34:00,
2013-01-09 13:39:00,55.5,47.5,30.30,SW,236,0.0,8.0,74,0.00,,CLR,0.00,VWS V14.00,2013-01-09 18:39:00,
2013-01-09 13:41:00,55.6,47.5,30.30,SW,222,4.4,8.0,74,0.00,,CLR,0.00,VWS V14.00,2013-01-09 18:41:00,
2013-01-09 13:44:00,54.7,46.7,30.30,West,278,0.0,8.0,74,0.00,,CLR,0.00,VWS V14.00,2013-01-09 18:44:00,
2013-01-09 13:48:00,51.9,44.0,30.30,SW,228,0.0,6.9,74,0.00,,CLR,0.00,VWS V14.00,2013-01-09 18:48:00,
2013-01-09 13:53:00,56.9,49.0,30.30,WSW,239,3.0,6.9,75,0.00,,CLR,0.00,VWS V14.00,2013-01-09 18:53:00,
2013-01-09 13:58:00,53.4,45.7,30.30,SW,236,4.3,6.9,75,0.00,,CLR,0.00,VWS V14.00,2013-01-09 18:58:00,
2013-01-09 14:03:00,60.0,52.0,30.30,NW,307,2.5,9.8,75,0.00,,CLR,0.00,VWS V14.00,2013-01-09 19:03:00,
2013-01-09 14:08:00,60.8,52.8,30.30,SW,228,0.0,9.8,75,0.00,,CLR,0.00,VWS V14.00,2013-01-09 19:08:00,
2013-01-09 14:13:00,60.9,53.0,30.30,WNW,287,0.0,9.8,75,0.00,,CLR,0.00,VWS V14.00,2013-01-09 19:13:00,
2013-01-09 14:18:00,60.9,53.0,30.30,SW,228,0.0,7.6,75,0.00,,CLR,0.00,VWS V14.00,2013-01-09 19:18:00,
2013-01-09 14:23:00,61.4,53.5,30.30,NW,325,0.0,8.9,75,0.00,,CLR,0.00,VWS V14.00,2013-01-09 19:23:00,
2013-01-09 14:28:00,61.8,53.7,30.31,WSW,238,5.2,9.1,75,0.00,,CLR,0.00,VWS V14.00,2013-01-09 19:28:00,
2013-01-09 14:33:00,61.5,53.5,30.30,WNW,288,0.0,7.7,75,0.00,,CLR,0.00,VWS V14.00,2013-01-09 19:33:00,
2013-01-09 14:38:00,61.4,53.3,30.30,SW,236,0.0,7.7,75,0.00,,CLR,0.00,VWS V14.00,2013-01-09 19:38:00,
2013-01-09 14:43:00,61.5,53.4,30.30,SW,224,4.2,7.7,75,0.00,,CLR,0.00,VWS V14.00,2013-01-09 19:43:00,
2013-01-09 14:48:00,61.6,53.6,30.30,SW,221,3.4,6.6,75,0.00,,FEW120,0.00,VWS V14.00,2013-01-09 19:48:00,
2013-01-09 14:53:00,61.5,53.4,30.30,SW,224,5.3,8.4,75,0.00,,FEW120,0.00,VWS V14.00,2013-01-09 19:53:00,
2013-01-09 14:58:00,61.3,53.2,30.30,SW,236,4.9,8.4,75,0.00,,FEW120,0.00,VWS V14.00,2013-01-09 19:58:00,
2013-01-09 15:03:00,61.6,53.6,30.30,SW,222,5.2,7.6,75,0.00,,FEW120,0.00,VWS V14.00,2013-01-09 20:03:00,
2013-01-09 15:08:00,61.5,53.6,30.31,WNW,297,4.2,9.8,75,0.00,,FEW120,0.00,VWS V14.00,2013-01-09 20:08:00,
2013-01-09 15:13:00,61.6,53.8,30.31,SW,214,3.0,9.8,76,0.00,,FEW120,0.00,VWS V14.00,2013-01-09 20:13:00,
2013-01-09 15:18:00,61.5,53.8,30.31,WNW,294,0.0,4.8,76,0.00,,FEW120,0.00,VWS V14.00,2013-01-09 20:18:00,
2013-01-09 15:23:00,61.5,53.8,30.31,SW,231,0.0,9.8,76,0.00,,FEW120,0.00,VWS V14.00,2013-01-09 20:23:00,
2013-01-09 15:28:00,61.5,53.8,30.31,SW,236,0.0,9.8,76,0.00,,FEW120,0.00,VWS V14.00,2013-01-09 20:28:00,
2013-01-09 15:33:00,61.3,53.5,30.31,SSW,208,0.0,7.7,76,0.00,,FEW120,0.00,VWS V14.00,2013-01-09 20:33:00,
2013-01-09 15:39:00,61.5,53.8,30.31,West,263,3.5,7.7,76,0.00,,FEW120,0.00,VWS V14.00,2013-01-09 20:39:00,
2013-01-09 15:43:00,61.4,53.9,30.31,NW,311,2.7,7.8,76,0.00,,FEW120,0.00,VWS V14.00,2013-01-09 20:43:00,
2013-01-09 15:49:00,61.5,54.2,30.31,WSW,255,2.4,2.8,77,0.00,,FEW120,0.00,VWS V14.00,2013-01-09 20:49:00,
2013-01-09 15:54:00,61.5,54.3,30.31,West,274,0.0,6.0,77,0.00,,FEW120,0.00,VWS V14.00,2013-01-09 20:54:00,
2013-01-09 15:58:00,60.3,53.3,30.31,WNW,284,0.0,6.3,78,0.00,,FEW120,0.00,VWS V14.00,2013-01-09 20:58:00,
2013-01-09 16:04:00,60.9,54.0,30.32,NW,323,7.2,7.2,78,0.00,,OVC110,0.00,VWS V14.00,2013-01-09 21:04:00,
2013-01-09 16:09:00,60.8,54.0,30.31,NNW,335,0.0,9.8,78,0.00,,OVC110,0.00,VWS V14.00,2013-01-09 21:09:00,
2013-01-09 16:14:00,59.2,52.6,30.31,WNW,292,4.3,9.8,79,0.00,,OVC110,0.00,VWS V14.00,2013-01-09 21:14:00,
2013-01-09 16:19:00,59.7,53.2,30.31,West,269,0.0,5.4,79,0.00,,OVC110,0.00,VWS V14.00,2013-01-09 21:19:00,
2013-01-09 16:23:00,60.7,54.3,30.32,West,263,3.0,5.4,79,0.00,,OVC110,0.00,VWS V14.00,2013-01-09 21:23:00,
2013-01-09 16:28:00,60.4,54.0,30.31,West,276,0.0,6.5,79,0.00,,OVC110,0.00,VWS V14.00,2013-01-09 21:28:00,
2013-01-09 16:33:00,60.4,54.1,30.31,West,276,0.0,0.0,80,0.00,,OVC110,0.00,VWS V14.00,2013-01-09 21:33:00,
2013-01-09 16:39:00,59.5,53.3,30.31,West,276,0.0,0.0,80,0.00,,OVC110,0.00,VWS V14.00,2013-01-09 21:39:00,
2013-01-09 16:44:00,60.1,53.9,30.31,West,276,0.0,0.0,80,0.00,,OVC110,0.00,VWS V14.00,2013-01-09 21:44:00,
2013-01-09 16:49:00,60.4,54.2,30.31,West,276,0.0,0.0,80,0.00,,BKN095,0.00,VWS V14.00,2013-01-09 21:49:00,
2013-01-09 16:53:00,59.4,53.3,30.31,West,276,0.0,0.0,80,0.00,,BKN095,0.00,VWS V14.00,2013-01-09 21:53:00,
2013-01-09 16:59:00,57.9,52.0,30.31,West,276,0.0,0.0,81,0.00,,BKN095,0.00,VWS V14.00,2013-01-09 21:59:00,
2013-01-09 17:03:00,57.9,52.0,30.31,West,276,0.0,0.0,81,0.00,,BKN095,0.00,VWS V14.00,2013-01-09 22:03:00,
2013-01-09 17:08:00,58.8,53.0,30.31,West,276,0.0,0.0,81,0.00,,BKN095,0.00,VWS V14.00,2013-01-09 22:08:00,
2013-01-09 17:14:00,59.4,53.7,30.31,West,276,0.0,0.0,81,0.00,,BKN095,0.00,VWS V14.00,2013-01-09 22:14:00,
2013-01-09 17:18:00,56.9,51.3,30.32,West,276,0.0,0.0,82,0.00,,BKN095,0.00,VWS V14.00,2013-01-09 22:18:00,
2013-01-09 17:23:00,56.9,51.4,30.31,West,276,0.0,0.0,82,0.00,,BKN095,0.00,VWS V14.00,2013-01-09 22:23:00,
2013-01-09 17:28:00,56.9,51.5,30.31,West,276,0.0,0.0,82,0.00,,BKN095,0.00,VWS V14.00,2013-01-09 22:28:00,
2013-01-09 17:34:00,55.7,50.4,30.31,WSW,238,3.2,4.8,82,0.00,,BKN095,0.00,VWS V14.00,2013-01-09 22:34:00,
2013-01-09 17:38:00,58.0,52.6,30.31,WSW,250,0.0,5.2,82,0.00,,BKN095,0.00,VWS V14.00,2013-01-09 22:38:00,
2013-01-09 17:43:00,56.3,51.0,30.30,WSW,238,0.0,5.2,82,0.00,,BKN095,0.00,VWS V14.00,2013-01-09 22:43:00,
2013-01-09 17:48:00,58.0,52.7,30.30,South,179,0.0,3.4,82,0.00,,SCT100,0.00,VWS V14.00,2013-01-09 22:48:00,
2013-01-09 17:53:00,58.5,53.3,30.30,SW,222,2.7,4.5,83,0.00,,SCT100,0.00,VWS V14.00,2013-01-09 22:53:00,
2013-01-09 17:58:00,55.2,50.1,30.31,SSW,194,0.0,4.5,83,0.00,,SCT100,0.00,VWS V14.00,2013-01-09 22:58:00,
2013-01-09 18:03:00,55.7,50.7,30.31,SSW,194,0.0,0.0,83,0.00,,SCT100,0.00,VWS V14.00,2013-01-09 23:03:00,
2013-01-09 18:08:00,55.6,50.7,30.31,SSW,194,0.0,0.0,84,0.00,,SCT100,0.00,VWS V14.00,2013-01-09 23:08:00,
2013-01-09 18:13:00,54.9,50.1,30.31,SSW,194,0.0,0.0,84,0.00,,SCT100,0.00,VWS V14.00,2013-01-09 23:13:00,
2013-01-09 18:18:00,56.0,51.3,30.31,SSW,194,0.0,0.0,84,0.00,,SCT100,0.00,VWS V14.00,2013-01-09 23:18:00,
2013-01-09 18:23:00,58.1,53.4,30.31,SSW,194,0.0,0.0,84,0.00,,SCT100,0.00,VWS V14.00,2013-01-09 23:23:00,
2013-01-09 18:28:00,56.5,52.0,30.31,SSW,194,0.0,0.0,85,0.00,,SCT100,0.00,VWS V14.00,2013-01-09 23:28:00,
2013-01-09 18:33:00,57.0,52.6,30.31,SSW,194,0.0,0.0,85,0.00,,SCT100,0.00,VWS V14.00,2013-01-09 23:33:00,
2013-01-09 18:38:00,56.4,52.1,30.31,SSW,194,0.0,0.0,86,0.00,,SCT100,0.00,VWS V14.00,2013-01-09 23:38:00,
2013-01-09 18:43:00,56.3,52.1,30.31,SSW,194,0.0,0.0,86,0.00,,SCT100,0.00,VWS V14.00,2013-01-09 23:43:00,
2013-01-09 18:48:00,55.2,51.2,30.31,SSW,194,0.0,0.0,86,0.00,,FEW100,0.00,VWS V14.00,2013-01-09 23:48:00,
2013-01-09 18:54:00,55.5,51.6,30.31,SSW,194,0.0,0.0,87,0.00,,FEW100,0.00,VWS V14.00,2013-01-09 23:54:00,
2013-01-09 18:58:00,55.2,51.4,30.31,SSW,194,0.0,0.0,87,0.00,,FEW100,0.00,VWS V14.00,2013-01-09 23:58:00,
2013-01-09 19:04:00,54.4,50.7,30.31,WSW,238,4.3,4.3,87,0.00,,FEW100,0.00,VWS V14.00,2013-01-10 00:04:00,
2013-01-09 19:09:00,53.9,50.3,30.31,WSW,238,0.0,4.3,88,0.00,,FEW100,0.00,VWS V14.00,2013-01-10 00:09:00,
2013-01-09 19:14:00,55.1,51.5,30.31,WSW,238,0.0,4.3,88,0.00,,FEW100,0.00,VWS V14.00,2013-01-10 00:14:00,
2013-01-09 19:19:00,53.9,50.4,30.31,WSW,253,0.0,4.3,88,0.00,,FEW110,0.00,VWS V14.00,2013-01-10 00:19:00,
2013-01-09 19:24:00,54.5,50.9,30.32,WNW,290,0.0,4.3,88,0.00,,FEW110,0.00,VWS V14.00,2013-01-10 00:24:00,
2013-01-09 19:29:00,54.7,51.1,30.32,WSW,250,0.0,4.5,88,0.00,,FEW110,0.00,VWS V14.00,2013-01-10 00:29:00,
2013-01-09 19:34:00,54.3,50.7,30.31,WSW,250,0.0,0.0,88,0.00,,FEW110,0.00,VWS V14.00,2013-01-10 00:34:00,
2013-01-09 19:39:00,53.2,49.6,30.32,WSW,250,0.0,0.0,87,0.00,,FEW110,0.00,VWS V14.00,2013-01-10 00:39:00,
2013-01-09 19:44:00,51.1,47.7,30.32,WSW,250,0.0,0.0,88,0.00,,FEW110,0.00,VWS V14.00,2013-01-10 00:44:00,
2013-01-09 19:49:00,54.0,50.9,30.32,WSW,250,0.0,0.0,89,0.00,,FEW110,0.00,VWS V14.00,2013-01-10 00:49:00,
2013-01-09 19:54:00,54.5,51.7,30.32,WSW,250,0.0,0.0,90,0.00,,FEW110,0.00,VWS V14.00,2013-01-10 00:54:00,
2013-01-09 19:59:00,53.5,50.8,30.32,WSW,250,0.0,0.0,90,0.00,,FEW110,0.00,VWS V14.00,2013-01-10 00:59:00,
2013-01-09 20:04:00,53.8,51.1,30.33,WSW,250,0.0,0.0,90,0.00,,FEW110,0.00,VWS V14.00,2013-01-10 01:04:00,
2013-01-09 20:09:00,53.6,50.8,30.33,WSW,250,0.0,0.0,90,0.00,,FEW110,0.00,VWS V14.00,2013-01-10 01:09:00,
2013-01-09 20:14:00,55.1,52.3,30.33,WSW,250,0.0,0.0,90,0.00,,FEW110,0.00,VWS V14.00,2013-01-10 01:14:00,
2013-01-09 20:19:00,53.7,51.0,30.33,WSW,250,0.0,0.0,90,0.00,,FEW110,0.00,VWS V14.00,2013-01-10 01:19:00,
2013-01-09 20:24:00,53.9,51.2,30.33,WSW,250,0.0,0.0,91,0.00,,FEW110,0.00,VWS V14.00,2013-01-10 01:24:00,
2013-01-09 20:29:00,53.9,51.3,30.33,WSW,250,0.0,0.0,91,0.00,,FEW110,0.00,VWS V14.00,2013-01-10 01:29:00,
2013-01-09 20:34:00,53.2,50.7,30.33,WSW,250,0.0,0.0,91,0.00,,FEW110,0.00,VWS V14.00,2013-01-10 01:34:00,
2013-01-09 20:39:00,53.3,50.9,30.33,WSW,250,0.0,0.0,92,0.00,,FEW110,0.00,VWS V14.00,2013-01-10 01:39:00,
2013-01-09 20:44:00,53.0,50.8,30.33,WSW,250,0.0,0.0,92,0.00,,FEW110,0.00,VWS V14.00,2013-01-10 01:44:00,
2013-01-09 20:49:00,52.3,50.2,30.33,WSW,250,0.0,0.0,93,0.00,,FEW120,0.00,VWS V14.00,2013-01-10 01:49:00,
2013-01-09 20:54:00,52.2,50.3,30.34,WSW,250,0.0,0.0,93,0.00,,FEW120,0.00,VWS V14.00,2013-01-10 01:54:00,
2013-01-09 20:59:00,52.1,50.5,30.34,WSW,250,0.0,0.0,94,0.00,,FEW120,0.00,VWS V14.00,2013-01-10 01:59:00,
2013-01-09 21:04:00,52.0,50.4,30.34,WSW,250,0.0,0.0,94,0.00,,FEW120,0.00,VWS V14.00,2013-01-10 02:04:00,
2013-01-09 21:09:00,52.1,50.7,30.34,WSW,250,0.0,0.0,95,0.00,,FEW120,0.00,VWS V14.00,2013-01-10 02:09:00,
2013-01-09 21:14:00,52.1,50.8,30.35,WSW,250,0.0,0.0,95,0.00,,FEW120,0.00,VWS V14.00,2013-01-10 02:14:00,
2013-01-09 21:19:00,52.8,51.5,30.35,WSW,250,0.0,0.0,95,0.00,,FEW120,0.00,VWS V14.00,2013-01-10 02:19:00,
2013-01-09 21:24:00,52.5,51.1,30.35,WSW,250,0.0,0.0,95,0.00,,FEW120,0.00,VWS V14.00,2013-01-10 02:24:00,
2013-01-09 21:29:00,52.3,51.0,30.34,WSW,250,0.0,0.0,95,0.00,,FEW120,0.00,VWS V14.00,2013-01-10 02:29:00,
2013-01-09 21:34:00,52.2,50.9,30.34,WSW,250,0.0,0.0,95,0.00,,FEW120,0.00,VWS V14.00,2013-01-10 02:34:00,
2013-01-09 21:39:00,52.3,51.0,30.34,WSW,250,0.0,0.0,95,0.00,,FEW120,0.00,VWS V14.00,2013-01-10 02:39:00,
2013-01-09 21:44:00,52.2,50.9,30.34,WSW,250,0.0,0.0,95,0.00,,FEW120,0.00,VWS V14.00,2013-01-10 02:44:00,
2013-01-09 21:49:00,53.0,51.7,30.35,WSW,250,0.0,0.0,95,0.00,,CLR,0.00,VWS V14.00,2013-01-10 02:49:00,
2013-01-09 21:54:00,53.0,51.7,30.35,WSW,250,0.0,0.0,95,0.00,,CLR,0.00,VWS V14.00,2013-01-10 02:54:00,
2013-01-09 21:59:00,53.0,51.6,30.35,WSW,250,0.0,0.0,95,0.00,,CLR,0.00,VWS V14.00,2013-01-10 02:59:00,
2013-01-09 22:04:00,52.8,51.5,30.35,WSW,250,0.0,0.0,95,0.00,,CLR,0.00,VWS V14.00,2013-01-10 03:04:00,
2013-01-09 22:09:00,52.9,51.6,30.35,WSW,250,0.0,0.0,95,0.00,,CLR,0.00,VWS V14.00,2013-01-10 03:09:00,
2013-01-09 22:14:00,52.7,51.5,30.35,WSW,250,0.0,0.0,96,0.00,,CLR,0.00,VWS V14.00,2013-01-10 03:14:00,
2013-01-09 22:19:00,52.2,51.0,30.35,WSW,250,0.0,0.0,96,0.00,,CLR,0.00,VWS V14.00,2013-01-10 03:19:00,
2013-01-09 22:24:00,52.4,51.2,30.35,WSW,250,0.0,0.0,96,0.00,,CLR,0.00,VWS V14.00,2013-01-10 03:24:00,
2013-01-09 22:29:00,52.4,51.2,30.36,WSW,250,0.0,0.0,96,0.00,,CLR,0.00,VWS V14.00,2013-01-10 03:29:00,
2013-01-09 22:34:00,52.9,51.9,30.36,WSW,250,0.0,0.0,96,0.00,,CLR,0.00,VWS V14.00,2013-01-10 03:34:00,
2013-01-09 22:39:00,52.5,51.6,30.36,WSW,250,0.0,0.0,97,0.00,,CLR,0.00,VWS V14.00,2013-01-10 03:39:00,
2013-01-09 22:44:00,52.5,51.6,30.36,WSW,250,0.0,0.0,97,0.00,,CLR,0.00,VWS V14.00,2013-01-10 03:44:00,
2013-01-09 22:49:00,51.9,51.0,30.36,WSW,250,0.0,0.0,97,0.00,,CLR,0.00,VWS V14.00,2013-01-10 03:49:00,
2013-01-09 22:54:00,51.7,51.0,30.36,WSW,250,0.0,0.0,97,0.00,,CLR,0.00,VWS V14.00,2013-01-10 03:54:00,
2013-01-09 22:59:00,51.8,51.3,30.36,WSW,250,0.0,0.0,98,0.00,,CLR,0.00,VWS V14.00,2013-01-10 03:59:00,
2013-01-09 23:04:00,51.9,51.5,30.36,WSW,250,0.0,0.0,98,0.00,,CLR,0.00,VWS V14.00,2013-01-10 04:04:00,
2013-01-09 23:09:00,51.5,50.9,30.36,WSW,250,0.0,0.0,98,0.00,,CLR,0.00,VWS V14.00,2013-01-10 04:09:00,
2013-01-09 23:14:00,51.4,51.0,30.35,WSW,250,0.0,0.0,99,0.00,,CLR,0.00,VWS V14.00,2013-01-10 04:14:00,
2013-01-09 23:19:00,51.4,51.4,30.36,WSW,250,0.0,0.0,100,0.00,,CLR,0.00,VWS V14.00,2013-01-10 04:19:00,
2013-01-09 23:24:00,51.0,51.0,30.36,WSW,250,0.0,0.0,100,0.00,,CLR,0.00,VWS V14.00,2013-01-10 04:24:00,
2013-01-09 23:29:00,51.0,51.0,30.36,WSW,250,0.0,0.0,100,0.00,,CLR,0.00,VWS V14.00,2013-01-10 04:29:00,
2013-01-09 23:34:00,51.0,51.0,30.36,WSW,250,0.0,0.0,100,0.00,,CLR,0.00,VWS V14.00,2013-01-10 04:34:00,
2013-01-09 23:39:00,51.0,51.0,30.36,WSW,250,0.0,0.0,100,0.00,,CLR,0.00,VWS V14.00,2013-01-10 04:39:00,
2013-01-09 23:44:00,51.6,51.6,30.36,WSW,250,0.0,0.0,100,0.00,,CLR,0.00,VWS V14.00,2013-01-10 04:44:00,
2013-01-09 23:49:00,51.6,51.6,30.36,WSW,250,0.0,0.0,100,0.00,,CLR,0.00,VWS V14.00,2013-01-10 04:49:00,
2013-01-09 23:54:00,51.2,51.2,30.36,WSW,250,0.0,0.0,100,0.00,,CLR,0.00,VWS V14.00,2013-01-10 04:54:00,
2013-01-09 23:59:00,51.3,51.2,30.36,WSW,250,0.0,0.0,100,0.00,,CLR,0.00,VWS V14.00,2013-01-10 04:59:00,